Time,TemperatureF,DewpointF,PressureIn,WindDirection,WindDirectionDegrees,WindSpeedMPH,WindSpeedGustMPH,Humidity,HourlyPrecipIn,Conditions,Clouds,dailyrainin,SoftwareType,DateUTC
2013-04-28 00:03:00,42.3,30.9,29.89,SW,225,10.0,18.0,64,0.00,,,0.00,meteohub,2013-04-27 23:03:00,
2013-04-28 00:08:00,42.3,30.9,29.89,WSW,247,11.0,18.0,64,0.00,,,0.00,meteohub,2013-04-27 23:08:00,
2013-04-28 00:13:00,42.1,30.7,29.89,SW,225,7.0,17.0,64,0.00,,,0.00,meteohub,2013-04-27 23:13:00,
2013-04-28 00:18:00,42.1,31.1,29.89,NW,315,11.0,16.0,65,0.00,,,0.00,meteohub,2013-04-27 23:18:00,
2013-04-28 00:23:00,42.1,31.1,29.89,SW,225,13.0,19.0,65,0.00,,,0.00,meteohub,2013-04-27 23:23:00,
2013-04-28 00:28:00,42.1,31.5,29.89,SW,225,16.0,19.0,66,0.00,,,0.00,meteohub,2013-04-27 23:28:00,
2013-04-28 00:34:00,42.1,31.5,29.86,WSW,247,10.0,19.0,66,0.00,,,0.00,meteohub,2013-04-27 23:34:00,
2013-04-28 00:39:00,42.1,31.5,29.86,WSW,247,10.0,17.0,66,0.00,,,0.00,meteohub,2013-04-27 23:39:00,
2013-04-28 00:44:00,42.1,31.5,29.86,WSW,247,21.0,22.0,66,0.00,,,0.00,meteohub,2013-04-27 23:44:00,
2013-04-28 00:49:00,42.1,31.1,29.86,SW,225,13.0,23.0,65,0.00,,,0.00,meteohub,2013-04-27 23:49:00,
2013-04-28 00:54:00,42.1,31.1,29.86,WSW,247,12.0,23.0,65,0.00,,,0.00,meteohub,2013-04-27 23:54:00,
2013-04-28 00:59:00,42.1,31.1,29.86,WSW,247,10.0,23.0,65,0.00,,,0.00,meteohub,2013-04-27 23:59:00,
2013-04-28 01:04:00,41.9,30.9,29.86,WSW,247,9.0,20.0,65,0.00,,,0.00,meteohub,2013-04-28 00:04:00,
2013-04-28 01:09:00,41.7,30.7,29.86,WSW,247,10.0,18.0,65,0.00,,,0.00,meteohub,2013-04-28 00:09:00,
2013-04-28 01:15:00,41.7,30.7,29.86,WSW,247,7.0,19.0,65,0.00,,,0.00,meteohub,2013-04-28 00:15:00,
2013-04-28 01:20:00,41.5,30.7,29.86,WSW,247,8.0,19.0,65,0.00,,,0.00,meteohub,2013-04-28 00:20:00,
2013-04-28 01:25:00,41.5,31.5,29.86,WSW,247,13.0,19.0,67,0.00,,,0.00,meteohub,2013-04-28 00:25:00,
2013-04-28 01:30:00,41.5,31.5,29.86,WSW,247,11.0,20.0,67,0.00,,,0.00,meteohub,2013-04-28 00:30:00,
2013-04-28 01:35:00,41.5,31.5,29.83,SW,225,15.0,20.0,67,0.00,,,0.00,meteohub,2013-04-28 00:35:00,
2013-04-28 01:40:00,41.7,32.0,29.83,SW,225,5.0,24.0,68,0.00,,,0.00,meteohub,2013-04-28 00:40:00,
2013-04-28 01:45:00,41.7,32.4,29.83,West,270,20.0,24.0,69,0.00,,,0.00,meteohub,2013-04-28 00:45:00,
2013-04-28 01:50:00,41.7,32.0,29.83,SW,225,13.0,24.0,68,0.00,,,0.00,meteohub,2013-04-28 00:50:00,
2013-04-28 01:55:00,41.7,32.4,29.83,SW,225,9.0,23.0,69,0.00,,,0.00,meteohub,2013-04-28 00:55:00,
2013-04-28 02:00:00,41.7,32.4,29.83,SW,225,14.0,24.0,69,0.00,,,0.00,meteohub,2013-04-28 01:00:00,
2013-04-28 02:05:00,41.7,32.4,29.83,WSW,247,14.0,24.0,69,0.00,,,0.00,meteohub,2013-04-28 01:05:00,
2013-04-28 02:11:00,41.7,32.7,29.83,WSW,247,11.0,24.0,70,0.00,,,0.00,meteohub,2013-04-28 01:11:00,
2013-04-28 02:16:00,41.9,32.9,29.83,SSW,202,13.0,23.0,70,0.00,,,0.00,meteohub,2013-04-28 01:16:00,
2013-04-28 02:21:00,41.9,32.9,29.81,WSW,247,9.0,22.0,70,0.00,,,0.00,meteohub,2013-04-28 01:21:00,
2013-04-28 02:26:00,42.1,33.4,29.81,WSW,247,11.0,22.0,71,0.00,,,0.00,meteohub,2013-04-28 01:26:00,
2013-04-28 02:31:00,42.1,33.4,29.81,WSW,247,12.0,20.0,71,0.00,,,0.00,meteohub,2013-04-28 01:31:00,
2013-04-28 02:36:00,42.1,33.4,29.81,WSW,247,11.0,20.0,71,0.00,,,0.00,meteohub,2013-04-28 01:36:00,
2013-04-28 02:41:00,42.1,33.4,29.81,SW,225,13.0,20.0,71,0.00,,,0.00,meteohub,2013-04-28 01:41:00,
2013-04-28 02:46:00,42.1,33.8,29.81,SW,225,10.0,20.0,72,0.00,,,0.00,meteohub,2013-04-28 01:46:00,
2013-04-28 02:51:00,42.1,33.4,29.81,SW,225,11.0,18.0,71,0.00,,,0.00,meteohub,2013-04-28 01:51:00,
2013-04-28 02:56:00,42.1,33.4,29.81,WSW,247,12.0,20.0,71,0.00,,,0.00,meteohub,2013-04-28 01:56:00,
2013-04-28 03:01:00,42.1,33.4,29.81,SW,225,18.0,20.0,71,0.00,,,0.00,meteohub,2013-04-28 02:01:00,
2013-04-28 03:07:00,42.1,33.4,29.78,SW,225,12.0,21.0,71,0.00,,,0.00,meteohub,2013-04-28 02:07:00,
2013-04-28 03:12:00,42.1,33.8,29.78,SW,225,17.0,21.0,72,0.00,,,0.00,meteohub,2013-04-28 02:12:00,
2013-04-28 03:17:00,41.9,33.6,29.78,WSW,247,7.0,21.0,72,0.00,,,0.00,meteohub,2013-04-28 02:17:00,
2013-04-28 03:22:00,41.9,33.6,29.78,West,270,6.0,23.0,72,0.00,,,0.00,meteohub,2013-04-28 02:22:00,
2013-04-28 03:27:00,41.9,33.6,29.78,WNW,292,13.0,23.0,72,0.00,,,0.00,meteohub,2013-04-28 02:27:00,
2013-04-28 03:32:00,41.9,33.6,29.78,WSW,247,15.0,23.0,72,0.00,,,0.00,meteohub,2013-04-28 02:32:00,
2013-04-28 03:37:00,41.9,33.8,29.78,SW,225,10.0,19.0,73,0.00,,,0.00,meteohub,2013-04-28 02:37:00,
2013-04-28 03:42:00,41.7,34.0,29.78,West,270,11.0,19.0,74,0.00,,,0.00,meteohub,2013-04-28 02:42:00,
2013-04-28 03:47:00,41.5,34.2,29.78,SW,225,9.0,21.0,75,0.00,,,0.00,meteohub,2013-04-28 02:47:00,
2013-04-28 03:52:00,41.5,34.5,29.78,WSW,247,11.0,21.0,76,0.00,,,0.00,meteohub,2013-04-28 02:52:00,
2013-04-28 03:57:00,41.4,34.3,29.78,WSW,247,9.0,21.0,76,0.00,,,0.00,meteohub,2013-04-28 02:57:00,
2013-04-28 04:02:00,41.2,34.5,29.78,WSW,247,6.0,20.0,77,0.00,,,0.00,meteohub,2013-04-28 03:02:00,
2013-04-28 04:07:00,41.2,35.4,29.75,SW,225,8.0,16.0,80,0.00,,,0.00,meteohub,2013-04-28 03:07:00,
2013-04-28 04:12:00,41.2,35.4,29.75,WSW,247,13.0,14.0,80,0.00,,,0.00,meteohub,2013-04-28 03:12:00,
2013-04-28 04:17:00,41.0,35.6,29.75,SW,225,11.0,20.0,81,0.00,,,0.00,meteohub,2013-04-28 03:17:00,
2013-04-28 04:22:00,41.0,35.6,29.75,WSW,247,12.0,20.0,81,0.00,,,0.00,meteohub,2013-04-28 03:22:00,
2013-04-28 04:27:00,41.0,36.5,29.75,SW,225,15.0,20.0,84,0.00,,,0.00,meteohub,2013-04-28 03:27:00,
2013-04-28 04:32:00,41.0,36.9,29.75,SSW,202,14.0,23.0,85,0.00,,,0.00,meteohub,2013-04-28 03:32:00,
2013-04-28 04:37:00,41.0,36.9,29.75,SW,225,12.0,23.0,85,0.00,,,0.00,meteohub,2013-04-28 03:37:00,
2013-04-28 04:42:00,41.0,36.9,29.75,West,270,8.0,23.0,85,0.00,,,0.00,meteohub,2013-04-28 03:42:00,
2013-04-28 04:47:00,41.0,37.2,29.75,WSW,247,14.0,21.0,86,0.00,,,0.00,meteohub,2013-04-28 03:47:00,
2013-04-28 04:52:00,41.0,37.2,29.72,WSW,247,10.0,22.0,86,0.00,,,0.00,meteohub,2013-04-28 03:52:00,
2013-04-28 04:57:00,41.0,37.2,29.72,SW,225,9.0,22.0,86,0.00,,,0.00,meteohub,2013-04-28 03:57:00,
2013-04-28 05:01:00,41.0,37.4,29.72,SW,225,12.0,22.0,87,0.00,,,0.00,meteohub,2013-04-28 04:01:00,
2013-04-28 05:02:00,41.0,37.4,29.72,WSW,247,11.0,22.0,87,0.00,,,0.00,meteohub,2013-04-28 04:02:00,
2013-04-28 05:03:00,41.0,37.8,29.72,SW,225,13.0,22.0,88,0.00,,,0.00,meteohub,2013-04-28 04:03:00,
2013-04-28 05:05:00,40.8,37.6,29.72,WSW,247,13.0,22.0,88,0.00,,,0.00,meteohub,2013-04-28 04:05:00,
2013-04-28 05:10:00,40.8,37.6,29.72,West,270,11.0,24.0,88,0.00,,,0.00,meteohub,2013-04-28 04:10:00,
2013-04-28 05:15:00,40.8,37.6,29.72,WSW,247,13.0,24.0,88,0.00,,,0.00,meteohub,2013-04-28 04:15:00,
2013-04-28 05:20:00,40.8,37.6,29.72,WSW,247,10.0,24.0,88,0.00,,,0.00,meteohub,2013-04-28 04:20:00,
2013-04-28 05:25:00,41.0,37.4,29.72,WSW,247,13.0,18.0,87,0.00,,,0.00,meteohub,2013-04-28 04:25:00,
2013-04-28 05:30:00,41.0,37.4,29.72,WSW,247,10.0,17.0,87,0.00,,,0.00,meteohub,2013-04-28 04:30:00,
2013-04-28 05:35:00,41.0,37.8,29.69,SW,225,13.0,17.0,88,0.00,,,0.00,meteohub,2013-04-28 04:35:00,
2013-04-28 05:41:00,41.0,37.8,29.69,SW,225,7.0,17.0,88,0.00,,,0.00,meteohub,2013-04-28 04:41:00,
2013-04-28 05:46:00,41.0,37.8,29.69,WNW,292,11.0,20.0,88,0.00,,,0.00,meteohub,2013-04-28 04:46:00,
2013-04-28 05:51:00,41.0,37.9,29.69,WSW,247,12.0,20.0,89,0.00,,,0.00,meteohub,2013-04-28 04:51:00,
2013-04-28 05:56:00,41.2,38.5,29.69,SW,225,12.0,22.0,90,0.00,,,0.00,meteohub,2013-04-28 04:56:00,
2013-04-28 06:01:00,41.2,38.5,29.69,SW,225,17.0,22.0,90,0.00,,,0.00,meteohub,2013-04-28 05:01:00,
2013-04-28 06:06:00,41.2,38.5,29.69,WSW,247,11.0,23.0,90,0.00,,,0.00,meteohub,2013-04-28 05:06:00,
2013-04-28 06:11:00,41.4,38.7,29.69,WSW,247,17.0,23.0,90,0.00,,,0.00,meteohub,2013-04-28 05:11:00,
2013-04-28 06:16:00,41.4,38.7,29.69,WSW,247,8.0,23.0,90,0.00,,,0.00,meteohub,2013-04-28 05:16:00,
2013-04-28 06:21:00,41.5,39.2,29.69,WSW,247,13.0,24.0,91,0.00,,,0.00,meteohub,2013-04-28 05:21:00,
2013-04-28 06:26:00,41.5,39.2,29.69,WNW,292,15.0,24.0,91,0.00,,,0.00,meteohub,2013-04-28 05:26:00,
2013-04-28 06:31:00,41.5,39.2,29.69,West,270,11.0,24.0,91,0.00,,,0.00,meteohub,2013-04-28 05:31:00,
2013-04-28 06:37:00,41.7,39.6,29.69,SW,225,15.0,21.0,92,0.00,,,0.00,meteohub,2013-04-28 05:37:00,
2013-04-28 06:42:00,41.7,39.6,29.69,WSW,247,18.0,21.0,92,0.00,,,0.00,meteohub,2013-04-28 05:42:00,
2013-04-28 06:47:00,41.9,39.7,29.69,WSW,247,11.0,20.0,92,0.00,,,0.00,meteohub,2013-04-28 05:47:00,
2013-04-28 06:52:00,42.1,39.9,29.69,WSW,247,19.0,19.0,92,0.00,,,0.00,meteohub,2013-04-28 05:52:00,
2013-04-28 06:57:00,42.1,39.9,29.69,WSW,247,23.0,23.0,92,0.00,,,0.00,meteohub,2013-04-28 05:57:00,
2013-04-28 07:02:00,42.3,40.1,29.69,WSW,247,15.0,23.0,92,0.00,,,0.00,meteohub,2013-04-28 06:02:00,
2013-04-28 07:07:00,42.3,40.5,29.69,SSW,202,15.0,23.0,93,0.00,,,0.00,meteohub,2013-04-28 06:07:00,
2013-04-28 07:12:00,42.4,40.6,29.69,WSW,247,11.0,23.0,93,0.00,,,0.00,meteohub,2013-04-28 06:12:00,
2013-04-28 07:17:00,42.4,40.6,29.69,WSW,247,8.0,20.0,93,0.00,,,0.00,meteohub,2013-04-28 06:17:00,
2013-04-28 07:22:00,42.6,40.8,29.66,SW,225,15.0,20.0,93,0.00,,,0.00,meteohub,2013-04-28 06:22:00,
2013-04-28 07:27:00,42.8,41.0,29.66,SSW,202,11.0,19.0,93,0.00,,,0.00,meteohub,2013-04-28 06:27:00,
2013-04-28 07:32:00,43.0,41.2,29.66,WSW,247,9.0,19.0,93,0.00,,,0.00,meteohub,2013-04-28 06:32:00,
2013-04-28 07:37:00,43.2,41.5,29.66,WSW,247,8.0,20.0,94,0.00,,,0.00,meteohub,2013-04-28 06:37:00,
2013-04-28 07:42:00,43.3,41.7,29.66,WSW,247,13.0,20.0,94,0.00,,,0.00,meteohub,2013-04-28 06:42:00,
2013-04-28 07:47:00,43.3,41.7,29.66,WSW,247,15.0,20.0,94,0.00,,,0.00,meteohub,2013-04-28 06:47:00,
2013-04-28 07:52:00,43.5,41.9,29.66,WSW,247,15.0,19.0,94,0.00,,,0.00,meteohub,2013-04-28 06:52:00,
2013-04-28 07:57:00,43.7,42.1,29.66,WSW,247,12.0,22.0,94,0.00,,,0.00,meteohub,2013-04-28 06:57:00,
2013-04-28 08:03:00,43.9,42.3,29.66,WSW,247,11.0,22.0,94,0.00,,,0.00,meteohub,2013-04-28 07:03:00,
2013-04-28 08:08:00,44.1,42.4,29.66,WSW,247,15.0,23.0,94,0.00,,,0.00,meteohub,2013-04-28 07:08:00,
2013-04-28 08:13:00,44.4,43.2,29.66,West,270,12.0,23.0,95,0.00,,,0.00,meteohub,2013-04-28 07:13:00,
2013-04-28 08:18:00,44.8,43.5,29.66,WSW,247,13.0,23.0,95,0.00,,,0.00,meteohub,2013-04-28 07:18:00,
2013-04-28 08:23:00,45.1,43.9,29.66,WSW,247,17.0,20.0,95,0.00,,,0.00,meteohub,2013-04-28 07:23:00,
2013-04-28 08:28:00,45.5,44.2,29.66,WSW,247,17.0,20.0,95,0.00,,,0.00,meteohub,2013-04-28 07:28:00,
2013-04-28 08:33:00,46.0,44.6,29.66,WSW,247,11.0,20.0,95,0.00,,,0.00,meteohub,2013-04-28 07:33:00,
2013-04-28 08:38:00,46.4,44.8,29.66,WNW,292,11.0,20.0,94,0.00,,,0.00,meteohub,2013-04-28 07:38:00,
2013-04-28 08:43:00,46.4,44.8,29.66,SW,225,12.0,20.0,94,0.00,,,0.00,meteohub,2013-04-28 07:43:00,
2013-04-28 08:48:00,46.4,44.2,29.66,WSW,247,16.0,20.0,92,0.00,,,0.00,meteohub,2013-04-28 07:48:00,
2013-04-28 08:53:00,46.6,44.1,29.66,WSW,247,13.0,20.0,91,0.00,,,0.00,meteohub,2013-04-28 07:53:00,
2013-04-28 08:59:00,46.6,43.9,29.66,West,270,10.0,20.0,90,0.00,,,0.00,meteohub,2013-04-28 07:59:00,
2013-04-28 09:04:00,46.8,43.7,29.66,WNW,292,11.0,20.0,89,0.00,,,0.00,meteohub,2013-04-28 08:04:00,
2013-04-28 09:09:00,46.8,43.3,29.66,WSW,247,13.0,22.0,88,0.00,,,0.00,meteohub,2013-04-28 08:09:00,
2013-04-28 09:14:00,47.3,43.7,29.66,WSW,247,17.0,22.0,87,0.00,,,0.00,meteohub,2013-04-28 08:14:00,
2013-04-28 09:19:00,48.4,45.0,29.66,WSW,247,16.0,22.0,88,0.00,,,0.00,meteohub,2013-04-28 08:19:00,
2013-04-28 09:24:00,48.9,45.1,29.66,West,270,13.0,20.0,87,0.00,,,0.00,meteohub,2013-04-28 08:24:00,
2013-04-28 09:29:00,49.1,44.8,29.66,South,180,12.0,20.0,85,0.00,,,0.00,meteohub,2013-04-28 08:29:00,
2013-04-28 09:34:00,49.5,44.6,29.66,WSW,247,9.0,24.0,83,0.00,,,0.00,meteohub,2013-04-28 08:34:00,
2013-04-28 09:39:00,49.6,44.4,29.66,WNW,292,12.0,24.0,82,0.00,,,0.00,meteohub,2013-04-28 08:39:00,
2013-04-28 09:44:00,49.8,43.9,29.66,West,270,13.0,24.0,80,0.00,,,0.00,meteohub,2013-04-28 08:44:00,
2013-04-28 09:49:00,49.8,43.5,29.66,WSW,247,13.0,21.0,79,0.00,,,0.00,meteohub,2013-04-28 08:49:00,
2013-04-28 09:55:00,50.0,42.8,29.66,WSW,247,16.0,25.0,76,0.00,,,0.00,meteohub,2013-04-28 08:55:00,
2013-04-28 10:00:00,50.0,42.8,29.66,WSW,247,20.0,25.0,76,0.00,,,0.00,meteohub,2013-04-28 09:00:00,
2013-04-28 10:05:00,50.2,42.3,29.63,SW,225,17.0,24.0,74,0.00,,,0.00,meteohub,2013-04-28 09:05:00,
2013-04-28 10:10:00,50.4,42.8,29.63,SW,225,22.0,24.0,75,0.00,,,0.00,meteohub,2013-04-28 09:10:00,
2013-04-28 10:15:00,50.7,42.8,29.63,SW,225,9.0,24.0,74,0.00,,,0.00,meteohub,2013-04-28 09:15:00,
2013-04-28 10:20:00,50.9,43.0,29.63,West,270,24.0,24.0,74,0.00,,,0.00,meteohub,2013-04-28 09:20:00,
2013-04-28 10:25:00,50.4,41.0,29.63,West,270,27.0,28.0,70,0.00,,,0.00,meteohub,2013-04-28 09:25:00,
2013-04-28 10:30:00,50.2,40.8,29.63,WSW,247,24.0,28.0,70,0.00,,,0.00,meteohub,2013-04-28 09:30:00,
2013-04-28 10:35:00,50.2,40.5,29.63,West,270,13.0,28.0,69,0.00,,,0.00,meteohub,2013-04-28 09:35:00,
2013-04-28 10:40:00,49.8,40.5,29.63,WSW,247,12.0,27.0,70,0.00,,,0.00,meteohub,2013-04-28 09:40:00,
2013-04-28 10:45:00,49.1,39.4,29.63,WNW,292,23.0,26.0,69,0.00,,,0.00,meteohub,2013-04-28 09:45:00,
2013-04-28 10:51:00,48.6,37.8,29.66,WSW,247,17.0,28.0,66,0.00,,,0.00,meteohub,2013-04-28 09:51:00,
2013-04-28 10:56:00,48.4,38.3,29.66,WSW,247,19.0,28.0,68,0.00,,,0.00,meteohub,2013-04-28 09:56:00,
2013-04-28 11:01:00,48.9,39.2,29.66,WSW,247,15.0,28.0,69,0.00,,,0.00,meteohub,2013-04-28 10:01:00,
2013-04-28 11:06:00,49.1,39.7,29.63,West,270,19.0,24.0,70,0.00,,,0.00,meteohub,2013-04-28 10:06:00,
2013-04-28 11:11:00,49.3,39.6,29.63,WSW,247,18.0,26.0,69,0.00,,,0.00,meteohub,2013-04-28 10:11:00,
2013-04-28 11:16:00,50.0,39.6,29.63,NNW,337,15.0,26.0,67,0.00,,,0.00,meteohub,2013-04-28 10:16:00,
2013-04-28 11:21:00,50.7,39.7,29.63,West,270,23.0,27.0,66,0.00,,,0.00,meteohub,2013-04-28 10:21:00,
2013-04-28 11:26:00,50.7,38.7,29.63,WNW,292,30.0,30.0,63,0.00,,,0.00,meteohub,2013-04-28 10:26:00,
2013-04-28 11:31:00,50.9,39.2,29.63,WSW,247,17.0,30.0,64,0.00,,,0.00,meteohub,2013-04-28 10:31:00,
2013-04-28 11:36:00,50.7,37.8,29.63,WNW,292,15.0,30.0,61,0.00,,,0.00,meteohub,2013-04-28 10:36:00,
2013-04-28 11:41:00,51.1,38.5,29.63,WNW,292,15.0,30.0,62,0.00,,,0.00,meteohub,2013-04-28 10:41:00,
2013-04-28 11:47:00,51.1,37.8,29.63,West,270,20.0,29.0,60,0.00,,,0.00,meteohub,2013-04-28 10:47:00,
2013-04-28 11:52:00,50.9,37.0,29.63,West,270,20.0,29.0,59,0.00,,,0.00,meteohub,2013-04-28 10:52:00,
2013-04-28 11:57:00,50.9,37.0,29.63,WNW,292,13.0,29.0,59,0.00,,,0.00,meteohub,2013-04-28 10:57:00,
2013-04-28 12:02:00,50.9,37.6,29.63,WSW,247,16.0,27.0,60,0.00,,,0.00,meteohub,2013-04-28 11:02:00,
2013-04-28 12:07:00,50.5,36.7,29.63,West,270,23.0,27.0,59,0.00,,,0.00,meteohub,2013-04-28 11:07:00,
2013-04-28 12:12:00,51.1,37.8,29.63,WNW,292,18.0,26.0,60,0.00,,,0.00,meteohub,2013-04-28 11:12:00,
2013-04-28 12:17:00,51.6,38.7,29.63,WSW,247,14.0,28.0,61,0.00,,,0.00,meteohub,2013-04-28 11:17:00,
2013-04-28 12:22:00,52.3,40.5,29.63,WSW,247,19.0,28.0,64,0.00,,,0.00,meteohub,2013-04-28 11:22:00,
2013-04-28 12:27:00,52.3,39.7,29.63,WNW,292,13.0,28.0,62,0.00,,,0.00,meteohub,2013-04-28 11:27:00,
2013-04-28 12:32:00,52.5,39.9,29.63,WSW,247,15.0,24.0,62,0.00,,,0.00,meteohub,2013-04-28 11:32:00,
2013-04-28 12:37:00,52.5,38.1,29.63,West,270,14.0,23.0,58,0.00,,,0.00,meteohub,2013-04-28 11:37:00,
2013-04-28 12:42:00,52.5,39.0,29.63,WSW,247,12.0,24.0,60,0.00,,,0.00,meteohub,2013-04-28 11:42:00,
2013-04-28 12:47:00,52.3,36.7,29.63,WSW,247,26.0,26.0,55,0.00,,,0.00,meteohub,2013-04-28 11:47:00,
2013-04-28 12:53:00,52.2,36.0,29.63,WSW,247,16.0,27.0,54,0.00,,,0.00,meteohub,2013-04-28 11:53:00,
2013-04-28 12:58:00,52.5,37.2,29.63,WSW,247,14.0,27.0,56,0.00,,,0.00,meteohub,2013-04-28 11:58:00,
2013-04-28 13:03:00,52.2,36.0,29.63,WSW,247,20.0,27.0,54,0.00,,,0.00,meteohub,2013-04-28 12:03:00,
2013-04-28 13:08:00,51.8,36.1,29.63,West,270,26.0,26.0,55,0.00,,,0.00,meteohub,2013-04-28 12:08:00,
2013-04-28 13:13:00,51.4,35.8,29.63,SSW,202,20.0,29.0,55,0.00,,,0.00,meteohub,2013-04-28 12:13:00,
2013-04-28 13:18:00,51.6,36.9,29.60,WSW,247,12.0,29.0,57,0.00,,,0.00,meteohub,2013-04-28 12:18:00,
2013-04-28 13:23:00,51.8,37.0,29.60,WSW,247,11.0,29.0,57,0.00,,,0.00,meteohub,2013-04-28 12:23:00,
2013-04-28 13:28:00,52.0,36.9,29.60,WSW,247,18.0,26.0,56,0.00,,,0.00,meteohub,2013-04-28 12:28:00,
2013-04-28 13:33:00,52.0,36.3,29.60,WSW,247,27.0,27.0,55,0.00,,,0.00,meteohub,2013-04-28 12:33:00,
2013-04-28 13:38:00,51.8,35.6,29.60,WSW,247,20.0,27.0,54,0.00,,,0.00,meteohub,2013-04-28 12:38:00,
2013-04-28 13:43:00,52.0,36.9,29.60,WSW,247,24.0,30.0,56,0.00,,,0.00,meteohub,2013-04-28 12:43:00,
2013-04-28 13:49:00,52.2,36.9,29.60,WSW,247,14.0,30.0,56,0.00,,,0.00,meteohub,2013-04-28 12:49:00,
2013-04-28 13:54:00,52.9,38.5,29.60,WSW,247,11.0,30.0,58,0.00,,,0.00,meteohub,2013-04-28 12:54:00,
2013-04-28 13:59:00,53.4,39.0,29.60,WSW,247,14.0,30.0,58,0.00,,,0.00,meteohub,2013-04-28 12:59:00,
2013-04-28 14:04:00,53.8,39.4,29.60,West,270,16.0,27.0,58,0.00,,,0.00,meteohub,2013-04-28 13:04:00,
2013-04-28 14:09:00,52.9,37.6,29.60,WNW,292,30.0,30.0,56,0.00,,,0.00,meteohub,2013-04-28 13:09:00,
2013-04-28 14:14:00,51.1,37.8,29.60,WSW,247,13.0,30.0,60,0.00,,,0.00,meteohub,2013-04-28 13:14:00,
2013-04-28 14:19:00,50.7,38.7,29.63,West,270,12.0,30.0,63,0.00,,,0.00,meteohub,2013-04-28 13:19:00,
2013-04-28 14:24:00,50.7,39.7,29.63,WSW,247,14.0,30.0,66,0.00,,,0.00,meteohub,2013-04-28 13:24:00,
2013-04-28 14:29:00,50.7,39.4,29.63,West,270,11.0,25.0,65,0.00,,,0.00,meteohub,2013-04-28 13:29:00,
2013-04-28 14:34:00,50.9,39.9,29.60,West,270,11.0,26.0,66,0.00,,,0.00,meteohub,2013-04-28 13:34:00,
2013-04-28 14:39:00,50.9,39.2,29.60,West,270,11.0,26.0,64,0.00,,,0.00,meteohub,2013-04-28 13:39:00,
2013-04-28 14:45:00,51.3,39.9,29.60,SW,225,18.0,26.0,65,0.00,,,0.00,meteohub,2013-04-28 13:45:00,
2013-04-28 14:50:00,51.6,39.9,29.60,WSW,247,15.0,23.0,64,0.00,,,0.00,meteohub,2013-04-28 13:50:00,
2013-04-28 14:55:00,51.6,39.0,29.60,NW,315,11.0,22.0,62,0.00,,,0.00,meteohub,2013-04-28 13:55:00,
2013-04-28 15:00:00,51.3,37.8,29.60,West,270,13.0,20.0,60,0.00,,,0.00,meteohub,2013-04-28 14:00:00,
2013-04-28 15:05:00,50.9,37.6,29.60,West,270,23.0,23.0,60,0.00,,,0.00,meteohub,2013-04-28 14:05:00,
2013-04-28 15:10:00,50.7,36.5,29.60,West,270,18.0,25.0,58,0.00,,,0.00,meteohub,2013-04-28 14:10:00,
2013-04-28 15:15:00,50.9,37.6,29.60,WSW,247,22.0,25.0,60,0.00,,,0.00,meteohub,2013-04-28 14:15:00,
2013-04-28 15:20:00,51.3,37.8,29.60,WSW,247,15.0,25.0,60,0.00,,,0.00,meteohub,2013-04-28 14:20:00,
2013-04-28 15:25:00,51.4,37.2,29.60,West,270,23.0,29.0,58,0.00,,,0.00,meteohub,2013-04-28 14:25:00,
2013-04-28 15:30:00,51.1,36.3,29.60,West,270,16.0,29.0,57,0.00,,,0.00,meteohub,2013-04-28 14:30:00,
2013-04-28 15:35:00,50.9,36.1,29.60,WNW,292,19.0,29.0,57,0.00,,,0.00,meteohub,2013-04-28 14:35:00,
2013-04-28 15:41:00,50.9,36.1,29.60,WNW,292,13.0,26.0,57,0.00,,,0.00,meteohub,2013-04-28 14:41:00,
2013-04-28 15:46:00,50.7,35.6,29.60,WNW,292,11.0,25.0,56,0.00,,,0.00,meteohub,2013-04-28 14:46:00,
2013-04-28 15:51:00,50.7,36.0,29.60,SW,225,15.0,25.0,57,0.00,,,0.00,meteohub,2013-04-28 14:51:00,
2013-04-28 15:56:00,50.9,37.0,29.60,WSW,247,8.0,25.0,59,0.00,,,0.00,meteohub,2013-04-28 14:56:00,
2013-04-28 16:01:00,51.3,37.8,29.60,WSW,247,13.0,20.0,60,0.00,,,0.00,meteohub,2013-04-28 15:01:00,
2013-04-28 16:06:00,51.4,37.6,29.57,WSW,247,18.0,21.0,59,0.00,,,0.00,meteohub,2013-04-28 15:06:00,
2013-04-28 16:11:00,51.3,36.5,29.57,WSW,247,12.0,21.0,57,0.00,,,0.00,meteohub,2013-04-28 15:11:00,
2013-04-28 16:16:00,51.4,37.2,29.57,SW,225,9.0,21.0,58,0.00,,,0.00,meteohub,2013-04-28 15:16:00,
2013-04-28 16:21:00,51.4,37.2,29.57,WSW,247,11.0,21.0,58,0.00,,,0.00,meteohub,2013-04-28 15:21:00,
2013-04-28 16:26:00,51.4,36.7,29.57,WSW,247,23.0,23.0,57,0.00,,,0.00,meteohub,2013-04-28 15:26:00,
2013-04-28 16:32:00,51.1,36.0,29.57,WSW,247,9.0,26.0,56,0.00,,,0.00,meteohub,2013-04-28 15:32:00,
2013-04-28 16:37:00,51.1,36.0,29.57,SW,225,10.0,26.0,56,0.00,,,0.00,meteohub,2013-04-28 15:37:00,
2013-04-28 16:42:00,50.9,35.8,29.57,WSW,247,9.0,26.0,56,0.00,,,0.00,meteohub,2013-04-28 15:42:00,
2013-04-28 16:47:00,50.7,34.7,29.57,WSW,247,11.0,27.0,54,0.00,,,0.00,meteohub,2013-04-28 15:47:00,
2013-04-28 16:52:00,50.5,35.1,29.57,WSW,247,17.0,27.0,55,0.00,,,0.00,meteohub,2013-04-28 15:52:00,
2013-04-28 16:57:00,50.5,35.1,29.57,WSW,247,23.0,27.0,55,0.00,,,0.00,meteohub,2013-04-28 15:57:00,
2013-04-28 17:02:00,50.4,34.9,29.57,WSW,247,17.0,25.0,55,0.00,,,0.00,meteohub,2013-04-28 16:02:00,
2013-04-28 17:07:00,50.4,34.9,29.54,WSW,247,13.0,25.0,55,0.00,,,0.00,meteohub,2013-04-28 16:07:00,
2013-04-28 17:12:00,50.2,34.2,29.54,WNW,292,17.0,27.0,54,0.00,,,0.00,meteohub,2013-04-28 16:12:00,
2013-04-28 17:17:00,50.0,34.0,29.54,WSW,247,13.0,27.0,54,0.00,,,0.00,meteohub,2013-04-28 16:17:00,
2013-04-28 17:22:00,49.6,34.2,29.57,WSW,247,17.0,27.0,55,0.00,,,0.00,meteohub,2013-04-28 16:22:00,
2013-04-28 17:27:00,49.6,34.2,29.57,West,270,20.0,26.0,55,0.00,,,0.00,meteohub,2013-04-28 16:27:00,
2013-04-28 17:32:00,48.9,34.0,29.57,WNW,292,20.0,31.0,56,0.00,,,0.00,meteohub,2013-04-28 16:32:00,
2013-04-28 17:37:00,48.6,33.6,29.57,WNW,292,18.0,31.0,56,0.00,,,0.00,meteohub,2013-04-28 16:37:00,
2013-04-28 17:42:00,48.2,34.5,29.57,WNW,292,27.0,31.0,59,0.00,,,0.00,meteohub,2013-04-28 16:42:00,
2013-04-28 17:47:00,47.8,34.7,29.57,WNW,292,22.0,27.0,60,0.00,,,0.00,meteohub,2013-04-28 16:47:00,
2013-04-28 17:52:00,47.5,33.8,29.57,WNW,292,13.0,32.0,59,0.00,,,0.00,meteohub,2013-04-28 16:52:00,
2013-04-28 17:58:00,47.3,33.3,29.57,West,270,17.0,32.0,58,0.00,,,0.00,meteohub,2013-04-28 16:58:00,
2013-04-28 18:03:00,46.8,32.7,29.57,WNW,292,28.0,32.0,58,0.00,,,0.00,meteohub,2013-04-28 17:03:00,
2013-04-28 18:08:00,46.9,35.4,29.57,WSW,247,11.0,28.0,64,0.00,,,0.00,meteohub,2013-04-28 17:08:00,
2013-04-28 18:13:00,46.8,36.0,29.57,WSW,247,11.0,28.0,66,0.00,,,0.00,meteohub,2013-04-28 17:13:00,
2013-04-28 18:18:00,46.8,35.2,29.57,WSW,247,24.0,28.0,64,0.00,,,0.00,meteohub,2013-04-28 17:18:00,
2013-04-28 18:23:00,46.8,34.9,29.57,WNW,292,15.0,24.0,63,0.00,,,0.00,meteohub,2013-04-28 17:23:00,
2013-04-28 18:28:00,46.8,34.5,29.57,West,270,17.0,26.0,62,0.00,,,0.00,meteohub,2013-04-28 17:28:00,
2013-04-28 18:33:00,46.8,33.6,29.57,WSW,247,17.0,26.0,60,0.00,,,0.00,meteohub,2013-04-28 17:33:00,
2013-04-28 18:38:00,46.6,33.4,29.57,WSW,247,11.0,26.0,60,0.00,,,0.00,meteohub,2013-04-28 17:38:00,
2013-04-28 18:43:00,46.4,33.6,29.57,WNW,292,17.0,28.0,61,0.00,,,0.00,meteohub,2013-04-28 17:43:00,
2013-04-28 18:48:00,46.0,34.2,29.57,WSW,247,23.0,28.0,63,0.00,,,0.00,meteohub,2013-04-28 17:48:00,
2013-04-28 18:54:00,45.5,35.6,29.57,West,270,13.0,30.0,68,0.00,,,0.00,meteohub,2013-04-28 17:54:00,
2013-04-28 18:59:00,45.1,35.2,29.57,WSW,247,13.0,30.0,68,0.00,,,0.00,meteohub,2013-04-28 17:59:00,
2013-04-28 19:04:00,44.8,34.9,29.57,WSW,247,21.0,30.0,68,0.00,,,0.00,meteohub,2013-04-28 18:04:00,
2013-04-28 19:09:00,44.2,34.3,29.57,WSW,247,15.0,24.0,68,0.00,,,0.00,meteohub,2013-04-28 18:09:00,
2013-04-28 19:14:00,44.1,34.2,29.57,West,270,13.0,23.0,68,0.00,,,0.00,meteohub,2013-04-28 18:14:00,
2013-04-28 19:19:00,44.1,34.2,29.57,WSW,247,17.0,23.0,68,0.00,,,0.00,meteohub,2013-04-28 18:19:00,
2013-04-28 19:24:00,43.9,34.0,29.57,West,270,18.0,23.0,68,0.00,,,0.00,meteohub,2013-04-28 18:24:00,
2013-04-28 19:29:00,43.9,34.0,29.57,WSW,247,11.0,19.0,68,0.00,,,0.00,meteohub,2013-04-28 18:29:00,
2013-04-28 19:34:00,43.7,33.4,29.57,West,270,15.0,19.0,67,0.00,,,0.00,meteohub,2013-04-28 18:34:00,
2013-04-28 19:39:00,43.5,32.5,29.57,NNW,337,7.0,20.0,65,0.00,,,0.00,meteohub,2013-04-28 18:39:00,
2013-04-28 19:45:00,43.5,32.2,29.57,WNW,292,27.0,27.0,64,0.00,,,0.00,meteohub,2013-04-28 18:45:00,
2013-04-28 19:50:00,43.5,31.8,29.57,SW,225,18.0,27.0,63,0.00,,,0.00,meteohub,2013-04-28 18:50:00,
2013-04-28 19:55:00,43.5,32.2,29.57,WSW,247,15.0,29.0,64,0.00,,,0.00,meteohub,2013-04-28 18:55:00,
2013-04-28 20:00:00,43.2,32.2,29.57,WSW,247,12.0,29.0,65,0.00,,,0.00,meteohub,2013-04-28 19:00:00,
2013-04-28 20:05:00,43.0,32.4,29.57,WSW,247,13.0,29.0,66,0.00,,,0.00,meteohub,2013-04-28 19:05:00,
2013-04-28 20:10:00,42.6,32.4,29.57,WSW,247,13.0,29.0,67,0.00,,,0.00,meteohub,2013-04-28 19:10:00,
2013-04-28 20:15:00,42.3,32.5,29.57,WSW,247,23.0,29.0,68,0.00,,,0.00,meteohub,2013-04-28 19:15:00,
2013-04-28 20:20:00,42.1,32.4,29.57,WNW,292,11.0,24.0,68,0.00,,,0.00,meteohub,2013-04-28 19:20:00,
2013-04-28 20:25:00,41.7,32.4,29.57,WSW,247,13.0,23.0,69,0.00,,,0.00,meteohub,2013-04-28 19:25:00,
2013-04-28 20:30:00,41.5,32.5,29.57,WSW,247,9.0,23.0,70,0.00,,,0.00,meteohub,2013-04-28 19:30:00,
2013-04-28 20:35:00,41.4,32.4,29.57,SW,225,7.0,23.0,70,0.00,,,0.00,meteohub,2013-04-28 19:35:00,
2013-04-28 20:40:00,41.2,32.2,29.57,WSW,247,12.0,23.0,70,0.00,,,0.00,meteohub,2013-04-28 19:40:00,
2013-04-28 20:46:00,41.0,32.0,29.57,SW,225,11.0,20.0,70,0.00,,,0.00,meteohub,2013-04-28 19:46:00,
2013-04-28 20:51:00,40.8,32.2,29.57,SW,225,9.0,20.0,71,0.00,,,0.00,meteohub,2013-04-28 19:51:00,
2013-04-28 20:56:00,40.6,32.0,29.57,WSW,247,9.0,20.0,71,0.00,,,0.00,meteohub,2013-04-28 19:56:00,
2013-04-28 21:01:00,40.5,31.8,29.57,WNW,292,11.0,16.0,71,0.00,,,0.00,meteohub,2013-04-28 20:01:00,
2013-04-28 21:06:00,40.5,32.2,29.57,WSW,247,10.0,16.0,72,0.00,,,0.00,meteohub,2013-04-28 20:06:00,
2013-04-28 21:11:00,40.3,32.4,29.57,WSW,247,11.0,20.0,73,0.00,,,0.00,meteohub,2013-04-28 20:11:00,
2013-04-28 21:16:00,40.1,32.2,29.57,SW,225,10.0,20.0,73,0.00,,,0.00,meteohub,2013-04-28 20:16:00,
2013-04-28 21:21:00,39.9,32.0,29.57,WSW,247,9.0,20.0,73,0.00,,,0.00,meteohub,2013-04-28 20:21:00,
2013-04-28 21:26:00,39.7,31.8,29.57,SW,225,10.0,18.0,73,0.00,,,0.00,meteohub,2013-04-28 20:26:00,
2013-04-28 21:31:00,39.6,31.6,29.57,SW,225,9.0,15.0,73,0.00,,,0.00,meteohub,2013-04-28 20:31:00,
2013-04-28 21:36:00,39.4,31.5,29.57,WSW,247,10.0,15.0,73,0.00,,,0.00,meteohub,2013-04-28 20:36:00,
2013-04-28 21:42:00,39.2,31.3,29.57,West,270,13.0,16.0,73,0.00,,,0.00,meteohub,2013-04-28 20:42:00,
2013-04-28 21:47:00,39.2,31.3,29.57,WNW,292,8.0,16.0,73,0.00,,,0.00,meteohub,2013-04-28 20:47:00,
2013-04-28 21:52:00,39.0,31.5,29.57,WSW,247,10.0,16.0,74,0.00,,,0.00,meteohub,2013-04-28 20:52:00,
2013-04-28 21:57:00,38.8,31.3,29.57,WSW,247,8.0,15.0,74,0.00,,,0.00,meteohub,2013-04-28 20:57:00,
2013-04-28 22:02:00,38.8,31.3,29.57,West,270,12.0,15.0,74,0.00,,,0.00,meteohub,2013-04-28 21:02:00,
2013-04-28 22:07:00,38.8,31.6,29.57,West,270,12.0,15.0,75,0.00,,,0.00,meteohub,2013-04-28 21:07:00,
2013-04-28 22:12:00,38.7,31.5,29.57,WSW,247,13.0,15.0,75,0.00,,,0.00,meteohub,2013-04-28 21:12:00,
2013-04-28 22:17:00,38.7,31.8,29.57,WSW,247,11.0,15.0,76,0.00,,,0.00,meteohub,2013-04-28 21:17:00,
2013-04-28 22:22:00,38.7,32.0,29.57,WSW,247,11.0,20.0,77,0.00,,,0.00,meteohub,2013-04-28 21:22:00,
2013-04-28 22:27:00,38.5,31.8,29.57,WSW,247,11.0,20.0,77,0.00,,,0.00,meteohub,2013-04-28 21:27:00,
2013-04-28 22:33:00,38.5,32.2,29.57,SW,225,15.0,20.0,78,0.00,,,0.00,meteohub,2013-04-28 21:33:00,
2013-04-28 22:38:00,38.5,32.2,29.57,West,270,11.0,19.0,78,0.00,,,0.00,meteohub,2013-04-28 21:38:00,
2013-04-28 22:43:00,38.5,32.2,29.57,WSW,247,13.0,19.0,78,0.00,,,0.00,meteohub,2013-04-28 21:43:00,
2013-04-28 22:48:00,38.3,32.4,29.57,WSW,247,14.0,19.0,79,0.00,,,0.00,meteohub,2013-04-28 21:48:00,
2013-04-28 22:53:00,38.3,32.4,29.57,WSW,247,13.0,20.0,79,0.00,,,0.00,meteohub,2013-04-28 21:53:00,
2013-04-28 22:58:00,38.5,32.9,29.57,WSW,247,15.0,20.0,80,0.00,,,0.00,meteohub,2013-04-28 21:58:00,
2013-04-28 23:03:00,38.5,32.9,29.57,WSW,247,8.0,20.0,80,0.00,,,0.00,meteohub,2013-04-28 22:03:00,
2013-04-28 23:08:00,38.5,33.1,29.57,West,270,13.0,18.0,81,0.00,,,0.00,meteohub,2013-04-28 22:08:00,
2013-04-28 23:13:00,38.7,33.6,29.57,WSW,247,16.0,18.0,82,0.00,,,0.00,meteohub,2013-04-28 22:13:00,
2013-04-28 23:18:00,38.8,34.2,29.57,WSW,247,11.0,23.0,83,0.00,,,0.00,meteohub,2013-04-28 22:18:00,
2013-04-28 23:23:00,38.8,34.2,29.57,WSW,247,9.0,23.0,83,0.00,,,0.00,meteohub,2013-04-28 22:23:00,
2013-04-28 23:29:00,38.8,34.2,29.57,WSW,247,12.0,23.0,83,0.00,,,0.00,meteohub,2013-04-28 22:29:00,
2013-04-28 23:34:00,38.7,33.6,29.57,WNW,292,10.0,22.0,82,0.00,,,0.00,meteohub,2013-04-28 22:34:00,
2013-04-28 23:39:00,38.7,33.6,29.57,WSW,247,13.0,18.0,82,0.00,,,0.00,meteohub,2013-04-28 22:39:00,
2013-04-28 23:44:00,38.5,33.4,29.57,WSW,247,17.0,18.0,82,0.00,,,0.00,meteohub,2013-04-28 22:44:00,
2013-04-28 23:49:00,38.5,33.4,29.57,WSW,247,8.0,18.0,82,0.00,,,0.00,meteohub,2013-04-28 22:49:00,
2013-04-28 23:54:00,38.3,33.3,29.57,West,270,9.0,17.0,82,0.00,,,0.00,meteohub,2013-04-28 22:54:00,
2013-04-28 23:59:00,38.3,33.3,29.57,WNW,292,11.0,17.0,82,0.00,,,0.00,meteohub,2013-04-28 22:59:00,